TimeAST,TemperatureF,Dew PointF,Humidity,Sea Level PressureIn,VisibilityMPH,Wind Direction,Wind SpeedMPH,Gust SpeedMPH,PrecipitationIn,Events,Conditions,WindDirDegrees,DateUTC
12:00 AM,82.4,77.0,84,29.92,-9999.0,North,-9999.0,-,N/A,,Unknown,0,2012-10-04 04:00:00
1:00 AM,82.4,77.0,84,29.92,-9999.0,North,-9999.0,-,N/A,,Unknown,0,2012-10-04 05:00:00
2:00 AM,82,75,75,,6,ESE,11.5,,,,Clear,110,2012-10-04 06:00:00
2:00 AM,82.4,75.2,79,29.89,-9999.0,North,-9999.0,-,N/A,,Unknown,0,2012-10-04 06:00:00
3:00 AM,82.4,75.2,79,29.89,-9999.0,North,-9999.0,-,N/A,,Unknown,0,2012-10-04 07:00:00
4:00 AM,82.4,75.2,79,29.89,-9999.0,North,-9999.0,-,N/A,,Unknown,0,2012-10-04 08:00:00
5:00 AM,,,,,,Calm,Calm,,,,,,2012-10-04 09:00:00
5:00 AM,82.4,75.2,79,29.89,-9999.0,North,-9999.0,-,N/A,,Unknown,0,2012-10-04 09:00:00
6:00 AM,82.4,75.2,79,29.89,-9999.0,North,-9999.0,-,N/A,,Unknown,0,2012-10-04 10:00:00
10:00 AM,87.8,77.0,70,29.95,6.2,East,13.8,-,N/A,,Partly Cloudy,90,2012-10-04 14:00:00
11:00 AM,89.6,77.0,66,29.92,6.2,East,16.1,-,N/A,,Scattered Clouds,100,2012-10-04 15:00:00
12:00 PM,89.6,77.0,66,29.92,6.2,East,13.8,-,N/A,,Scattered Clouds,100,2012-10-04 16:00:00
2:00 PM,89.6,75.2,62,29.86,-9999.0,North,-9999.0,-,N/A,,Unknown,0,2012-10-04 18:00:00
3:00 PM,89.6,75.2,62,29.83,6.2,East,12.7,-,N/A,,Scattered Clouds,100,2012-10-04 19:00:00
4:00 PM,87.8,77.0,70,29.83,6.2,East,12.7,-,N/A,,Scattered Clouds,90,2012-10-04 20:00:00
5:00 PM,87,75,60,29.83,22,East,10.4,,,,Partly Cloudy,80,2012-10-04 21:00:00
5:00 PM,87.8,75.2,66,29.80,6.2,East,10.4,-,N/A,,Scattered Clouds,80,2012-10-04 21:00:00
6:00 PM,84.2,77.0,79,29.83,-9999.0,North,-9999.0,-,N/A,,Unknown,0,2012-10-04 22:00:00
7:00 PM,84.2,77.0,79,29.83,-9999.0,North,-9999.0,-,N/A,,Unknown,0,2012-10-04 23:00:00
8:00 PM,83,77,78,29.86,19,East,9.2,,,,Partly Cloudy,80,2012-10-05 00:00:00
8:00 PM,84.2,77.0,79,29.86,6.2,East,9.2,-,N/A,,Scattered Clouds,80,2012-10-05 00:00:00